Regional Weather Roundup
Issued by NWS Pendleton, OR

Home | Current Version | Previous Version | Text Only | Print | Product List | Glossary On
Versions: 1 2 3 4 5 6 7 8 9 10 11 12 13 14 15 16 17 18 19 20 21 22 23 24 25 26 27 28 29 30 31 32 33 34 35 36 37 38 39 40 41 42 43 44 45 46 47 48 49 50
790
ASUS46 KPDT 210725
RWRPDT
PENDLETON REGIONAL WEATHER ROUNDUP
NATIONAL WEATHER SERVICE PENDLETON OREGON
1200 AM PDT FRI JUL 21 2017

NOTE: FAIR INDICATES FEW OR NO CLOUDS BELOW 12,000 FEET WITH NO
SIGNIFICANT WEATHER AND/OR OBSTRUCTIONS TO VISIBILITY.

# INDICATES UNOFFICIAL STATION AND DATA

WAZ520-210810-
EAST SLOPES OF WASHINGTON CASCADES

CITY            SKY/WX      TMP DP  RH  WIND    PRES   REMARKS
#BULLFROG       N/A         57  48  72  CALM    N/A
#CLE ELUM HS    N/A         57  48  72  W8      30.03F
#CLE ELUM LAKE  N/A         53  46  77  CALM    30.19S
#EASTON DOT     N/A         54  48  80  N2      N/A
#ELK HTS DOT    N/A         57  57  100 W7      N/A
#GLENWOOD       N/A         49  45  86  CALM    30.04R
#NELSON 3SW     N/A         53  45  74  CALM    30.23R
#NILE           N/A         56  46  69  CALM    29.32S
#TEANAWAY 4NE   N/A         55  47  74  NE2     N/A
#TROUT LAKE 1NE N/A         56  48  74  SW2     30.05S
#TROUT LAKE 1E  N/A         55  49  80  CALM    30.13S
$$

WAZ521-210810-
SIMCOE HIGHLANDS

CITY            SKY/WX      TMP DP  RH  WIND    PRES   REMARKS
#BICKLETON HS   N/A         58  49  72  N7      30.02S
#CENTERVILLE 1SWN/A         60  46  60  S7      30.00R
#GOLDENDALE 1NE N/A         61  35  38  W7      N/A
#GOLDENDALE 4W  N/A         60  17  18  W6      30.12R
#GOODNOE HILLS  N/A         62  48  60  W9      N/A
#LYLE 6NE       N/A         60  50  69  S3      30.05R
#PITT 4SE       N/A         54  47  77  W1      30.07R
$$

WAZ026-210810-
KITTITAS VALLEY

CITY            SKY/WX      TMP DP  RH  WIND    PRES   REMARKS
ELLENSBURG AP   CLEAR       59  47  64  N10     30.08S
#ELLENSBURG CWU N/A         57  47  69  N7      29.97S
#ELLENSBURG 3NE N/A         57  48  72  N7      28.15S
#ELLENSBURG 1E  N/A         58  46  64  CALM    30.05S
#KITTITAS 3S    N/A         50  46  86  CALM    30.02R
#MANASTASH RDG  N/A         59  58  96  NW10    N/A
#ROCKY CYN DOT  N/A         60  49  67  W15     N/A
#RYEGRASS DOT   N/A         56  47  72  SW20G26 N/A
$$

WAZ027-210810-
YAKIMA VALLEY

CITY            SKY/WX      TMP DP  RH  WIND    PRES   REMARKS
SUNNYSIDE AP    N/A         55  49  80  CALM    30.04R
YAKIMA AIRPORT  CLEAR       63  47  56  W8      30.07R
YAKIMA-VAGABOND CLEAR       63  43  48  N6      30.06R
#DONALD 2NE     N/A         64  22  20  NW7     28.89R
#GRANDVIEW      N/A         63  47  56  W1      30.02R
#MABTON         N/A         63  49  60  SW1     30.04R
#MOXEE 2E       N/A         63  N/A N/A W6      29.97R
#NACHES 2SW     N/A         60  48  64  W8      30.09R
#OUTLOOK DOT    N/A         64  46  52  CALM    30.01R
#PARKER DOT     N/A         66  45  47  S12     30.04R
#TERRACE HTS    N/A         64  45  50  NW7     29.97R
#TOPPENISH      N/A         64  47  54  CALM    29.94R
#I82 S UMTANUM RN/A         63  43  48  NW12    N/A
#UNION GAP DOT  N/A         63  46  54  N5      30.08S
#W YAKIMA       N/A         60  47  62  NW5     30.02R
#WHITE SWAN 5E  N/A         61  47  60  CALM    30.01S
#WILEY CITY 3W  N/A         55  42  61  CALM    30.04R
#ZILLAH DOT     N/A         66  43  43  NW10    N/A
$$

WAZ028-210810-
LOWER COLUMBIA BASIN...WASHINGTON

CITY            SKY/WX      TMP DP  RH  WIND    PRES   REMARKS
PASCO           CLEAR       67  44  43  VRB7    30.04R
PROSSER AWOS    N/A         59  48  67  W5      30.07R
RICHLAND AWOS   CLEAR       67  45  45  NW8     30.04R
#BENTON CITY    N/A         62  49  62  CALM    29.91R
#CONNELL 5N     N/A         60  46  60  W1      29.98R
#CONNELL 5NW    N/A         59  47  64  W2      29.94R
#ELTOPIA 6NW    N/A         64  47  54  W1      29.01R
#KAHLOTUS       N/A         64  44  48  N15     29.97R
#KENNEWICK 3S   N/A         65  46  50  CALM    30.01R
#PATERSON       N/A         64  50  60  VRB6    30.00R
#PROSSER DOT    N/A         62  49  62  SW5     30.04R
#SAGEMOOR 2W    N/A         64  47  54  W8      29.86R
#TOUCHET 2S     N/A         67  44  43  SW6     29.99R
#WEST PASCO     N/A         68  46  45  NW2     30.01R
$$

WAZ029-210810-
FOOTHILLS OF THE BLUES...WASHINGTON

CITY            SKY/WX      TMP DP  RH  WIND    PRES   REMARKS
WALLA WALLA AP  CLEAR       66  42  42  S8      30.07R
#CLYDE 6NW      N/A         60  43  53  CALM    29.98R
#DAYTON SCHOOL  N/A         66  36  33  CALM    30.06R
#DELANEY DOT    N/A         65  39  38  CALM    30.04R
#LOWDEN 2SE     N/A         65  45  48  CALM    30.01R
#PLEASANT VIEW 1N/A         62  42  48  SW2     30.01R
#PRESCOTT       N/A         63  44  50  W1      29.99R
#WHITMAN COLLEGEN/A         68  44  42  CALM    30.06R
#WAITSBURG 5S   N/A         62  41  46  CALM    30.09R
#WAITSBURG 6SSE N/A         63  39  41  E3      30.04R
#WALLA WALLA 5E N/A         65  41  41  S8      N/A
#WHITMAN MISSIONN/A         62  49  62  CALM    30.03R
$$

WAZ030-210810-
BLUE MOUNTAINS...WASHINGTON

CITY            SKY/WX      TMP DP  RH  WIND    PRES   REMARKS
#DIXIE 5SE      N/A         61  39  44  SW6     30.04R
$$

ORZ009-041-WAZ024-210810-
COLUMBIA RIVER GORGE

CITY            SKY/WX      TMP DP  RH  WIND    PRES   REMARKS
HOOD RIVER AP   CLEAR       63  50  62  W7      30.10S
THE DALLES AP   CLEAR       69  50  51  W16     30.05S
#ARLINGTON AIRPON/A         64  48  56  W9      30.03S
#CELILO DOT     N/A         69  48  47  SW3     N/A
#LYLE           N/A         67  53  61  N5      30.07R
#MARYHILL       N/A         65  46  50  N7      N/A
#RUFUS DOT      N/A         71  N/A N/A W15     N/A
#SMITHVILLE     N/A         67  51  56  W14     30.04F

$$

ORZ510-210810-
NORTH CENTRAL OREGON

CITY            SKY/WX      TMP DP  RH  WIND    PRES   REMARKS
#ANTELOPE       N/A         54  44  69  NE1     29.90R
#CHENOWITH 1W   N/A         59  50  72  NW24    N/A
#COW CYN RST AREN/A         57  45  64  NE2     N/A
#DUFUR          N/A         47  43  86  CALM    30.03R
#DUFUR 9E       N/A         58  48  69  W3      30.10R
#GRASS VALLEY 1SN/A         53  44  71  CALM    30.13R
#KENT DOT       N/A         52  41  66  SE1     N/A
#MAUPIN SCHOOL  N/A         65  51  60  SW3     30.12R
#MORO SCHOOL    N/A         59  51  75  W3      30.09R
#SHANIKO 5WSW   N/A         56  42  59  N2      N/A
#SHANIKO 4NW    N/A         55  44  66  N5      30.14S
#TYGH VALLEY 2NEN/A         61  48  62  CALM    30.03R
#WAPANITIA AIRPON/A         59  48  67  W7      30.04S
#WASCO DOT      N/A         61  49  65  SW7     N/A
#WASCO 5NE      N/A         61  48  62  SW7     30.02R
$$

ORZ511-210810-
CENTRAL OREGON

CITY            SKY/WX      TMP DP  RH  WIND    PRES   REMARKS
BEND AIRPORT    CLEAR       57  45  64  CALM    30.15S
MADRAS AIRPORT  CLEAR       55  45  69  CALM    30.14R
PRINEVILLE AP   CLEAR       52  41  66  W3      30.14R
REDMOND AIRPORT CLEAR       56  42  59  CALM    30.13R
#ASHWOOD SCHOOL N/A         56  44  64  CALM    30.08R
#BEND 1SW       N/A         54  40  59  CALM    N/A
#BEND-AWBREY    N/A         56  46  69  CALM    30.00R
#BEND-KIM LN    N/A         50  43  77  CALM    29.96R
#CULVER         N/A         58  47  67  CALM    29.93S
#CULVER 8W      N/A         58  49  72  CALM    30.10F
#LAKE BILLY CHINN/A         60  N/A N/A E3      30.07R
#MADRAS 4S      N/A         57  15  19  CALM    N/A
#POWELL BUTTE   N/A         61  47  60  CALM    30.09R
#PRINEVILLE     N/A         59  45  60  CALM    30.08R
#PRINEVILLE 3N  N/A         57  47  69  CALM    30.08R
#WARM SPRINGS   N/A         62  48  60  CALM    29.92R

$$


ORZ509-210810-
EAST SLOPES OF OREGON CASCADES

CITY            SKY/WX      TMP DP  RH  WIND    PRES   REMARKS
SISTERS AWOS    N/A         57  45  64  CALM    30.10S
#CAMP SHERMAN   N/A         56  46  69  CALM    30.07F
#LA PINE 4NW    N/A         50  42  74  CALM    30.05S
#LAVA BUTTE DOT N/A         51  38  61  CALM    N/A
#SISTERS ODOT   N/A         54  43  66  CALM    N/A
#SISTERS 3N     N/A         55  43  64  CALM    30.07S
#SUNRIVER       N/A         53  41  64  CALM    30.17S
#TUMALO 3W      N/A         57  46  67  CALM    29.89S
#WANOGA BUTTE D N/A         50  37  61  CALM    N/A

$$

ORZ044-210810-
LOWER COLUMBIA BASIN...OREGON

CITY            SKY/WX      TMP DP  RH  WIND    PRES   REMARKS
HERMISTON       CLEAR       67  46  47  SW13    30.03R
#BOARDMAN SCHOOLN/A         67  48  50  SW3     30.03R
#BOARDMAN 8SW   N/A         62  49  62  SW5     30.03R
#ECHO 8SW       N/A         67  44  43  SW6     30.06R
#I-84 EX 198 DOTN/A         66  45  47  E10     N/A
#IONE SCHOOL    N/A         66  45  47  S3      30.04R
#UMATILLA       N/A         66  46  48  CALM    29.94R
$$

ORZ507-210810-
NORTHERN FOOTHILLS OF THE BLUES

CITY            SKY/WX      TMP DP  RH  WIND    PRES   REMARKS
PENDLETON AIRPT CLEAR       60  38  44  NE5     30.08R
#ADAMS 3WNW     N/A         54  38  55  N1      30.01R
#ATHENA         N/A         57  42  57  E1      30.05R
#CAYUSE         N/A         63  44  50  E3      30.00R
#HELIX SCHOOL   N/A         58  40  51  CALM    30.01R
#HELIX 3N       N/A         60  41  49  SW8     30.05R
#HOLDMAN 5SE    N/A         62  44  52  SW1     30.06R
#HOLDMAN 6E     N/A         61  42  50  CALM    29.83R
#M-F GROVE ELEM N/A         64  39  40  CALM    30.04R
#M-FREEWATER 5SEN/A         59  44  57  CALM    30.07R
#PENDLETON DNTN N/A         64  38  38  CALM    30.07R
#PDT AQUATIC CTRN/A         62  39  43  CALM    30.05S
#PDT SUNRIDGE   N/A         60  43  53  CALM    30.08R
#PENDLETON 7NW  N/A         64  43  46  SW7     30.09R
#PILOT ROCK 1S  N/A         61  41  48  S6      30.09R
#PILOT ROCK     N/A         60  42  51  CALM    30.10R
#TUTUILLA       N/A         56  44  64  CALM    30.11R
#UMAPINE 2E     N/A         64  47  54  SW1     30.02R
#WESTON SCHOOL  N/A         59  39  47  W5      30.00R

$$

ORZ508-210810-
SOUTHERN FOOTHILLS OF THE BLUES

CITY            SKY/WX      TMP DP  RH  WIND    PRES   REMARKS
LEXINGTON       CLEAR       63  45  52  S6      30.13R
#AJAX           N/A         59  41  51  CALM    30.25R
#CONDON 5W      N/A         55  46  72  CALM    30.13R
#FOSSIL SCHOOL  N/A         53  43  69  CALM    30.06S
#HEPPNER EOC    N/A         58  43  57  E6      29.98R
#HEPPNER 4NE    N/A         57  43  59  SW2     30.03R
#LEXINGTON 2SE  N/A         61  44  53  SW7     30.06R
#MIKKALO        N/A         60  43  53  W2      30.22R
#OLEX 4N        N/A         63  47  56  SW14    30.05S
#RUGGS 5NE      N/A         55  39  55  CALM    30.30S
#RUGGS 2SW      N/A         55  42  61  S5      30.05R

$$

ORZ502-503-210810-
BLUE MOUNTAINS

CITY            SKY/WX      TMP DP  RH  WIND    PRES   REMARKS
MEACHAM         CLEAR       46  37  71  CALM    30.16R
#BATTLE MTN DOT N/A         51  40  66  W8      N/A
#GRANITE        N/A         48  32  54  CALM    29.80S
#HEPPNER 15SE   N/A         47  40  76  CALM    30.00R
#LADD CYN SMT   N/A         59  37  44  W8      N/A
#LADD CREEK ODOTN/A         63  37  38  CALM    N/A
#LONG CREEK HS  N/A         54  42  64  CALM    N/A
#N POWDER DOT   N/A         58  41  53  N7      N/A
#PIKES PEAK     N/A         60  39  46  N8      27.99S
#TOLLGATE       N/A         49  38  66  CALM    30.02S
#TROY SCHOOL    N/A         64  43  46  CALM    29.82R
#UKIAH          N/A         50  41  71  CALM    29.95R
#WESTON 4E      N/A         59  40  49  CALM    29.98R
$$

ORZ505-210810-
JOHN DAY BASIN

CITY            SKY/WX      TMP DP  RH  WIND    PRES   REMARKS
JOHN DAY        CLEAR       63  42  46  W9      30.14R
#JOHN DAY KJDY  N/A         67  N/A N/A CALM    30.91F
#ANTELOPE 9ESE  N/A         62  45  54  CALM    N/A
#DAYVILLE SCHOOLN/A         68  42  39  NW2     30.06R
#MITCHELL       N/A         56  47  72  CALM    30.29S
#MITCHELL 8NW   N/A         59  44  57  CALM    30.06R
#MONUMENT HS    N/A         65  42  43  CALM    30.05R
#MT. VERNON 5SE N/A         62  41  46  W5      30.09R
#SPRAY SCHOOL   N/A         63  N/A N/A CALM    N/A
$$

ORZ506-210810-
OCHOCO AND JOHN DAY HIGHLANDS

CITY            SKY/WX      TMP DP  RH  WIND    PRES   REMARKS
#HORSE RIDGE DO N/A         53  38  57  E6      N/A
#IZEE 6NW       N/A         56  37  49  S1      N/A
#PAULINA ODOT   N/A         63  39  41  NW10    N/A
#PINE MTN OBS   N/A         50  42  74  NW8     N/A
#PRAIRIE CITY   N/A         54  41  61  CALM    30.24R
#SENECA         N/A         56  N/A N/A CALM    N/A
#SENECA 9NW     N/A         53  37  54  CALM    29.91S
$$

ORZ049-210810-
GRANDE RONDE VALLEY

CITY            SKY/WX      TMP DP  RH  WIND    PRES   REMARKS
LA GRANDE       CLEAR       64  37  37  NW13    30.10R
#COVE           N/A         55  45  69  N1      30.13R
#COVE SCHOOL    N/A         54  42  64  CALM    30.11S
#COVE 6NW       N/A         54  41  61  CALM    29.99R
#ELGIN 3N       N/A         55  35  47  N1      30.08R
#ELGIN 1E       N/A         58  39  49  CALM    N/A
#IMBLER SCHOOL  N/A         59  38  45  CALM    30.06R
#ISLAND CITY 4N N/A         55  52  90  CALM    30.13S
#LA GRANDE-LEFFEN/A         62  38  41  W8      30.10R
#UNION 1S       N/A         61  43  51  N2      29.97R
$$

ORZ050-210810-
WALLOWA COUNTY

CITY            SKY/WX      TMP DP  RH  WIND    PRES   REMARKS
JOSEPH AIRPORT  PTCLDY      52  43  71  CALM    30.17R
#ENTERPRISE HS  N/A         54  42  64  CALM    29.88R
#IMNAHA SCHOOL  N/A         72  39  30  S3      30.03R
#IMNAHA 10S     N/A         63  41  44  SW3     30.08R
#JOSEPH         N/A         54  45  71  CALM    30.08R
#JOSEPH 3N      N/A         49  38  66  E1      30.16R
#JOSEPH 3W      N/A         54  45  71  SW1     29.99S
#LOSTINE        N/A         51  44  77  CALM    29.80R
#LOSTINE 3SE    N/A         50  40  68  CALM    30.17R
#MT HOWARD 8000 N/A         50  39  66  E2      30.32F
#PROMISE 1S     N/A         55  39  55  CALM    30.08R
#WALLOWA LAKE   N/A         54  44  69  S1      30.19R
#WALLOWA SCHOOL N/A         54  44  69  CALM    30.07R



$$



USA.gov is the U.S. government's official web portal to all federal, state and local government web resources and services.